Hourly Data Report for October 03, 2016

All times are specified in Local Standard Time (LST). Add 1 hour to adjust for Daylight Saving Time where and when it is observed.

PETAWAWA AWOS 2
ONTARIO

45°57'00.000" N
77°19'00.000" W
130.10 m
6106396
71625
YWA

Download Data

Hourly Data (October 2016)
Hourly Data Report for October 3, 2016
Temp Definition
°C
Dew Point Temp Definition
°C
Rel Hum Definition
%
Wind Dir Definition
10's deg

Wind Spd Definition
km/h
Visibility Definition
km
Stn Press Definition
kPa
Hmdx Definition


Wind Chill Definition


Weather Definition


TIME
00:00 14.1 13.6 97 32 6 14.5 99.98     LegendNANA
01:00 13.9 13.4 97 34 9 14.5 99.99     LegendNANA
02:00 13.8 13.0 95 34 13 14.5 100.04     LegendNANA
03:00 13.8 12.6 92 36 7 14.5 100.04     LegendNANA
04:00 13.6 12.1 91 2 11 14.5 100.09     LegendNANA
05:00 13.6 11.5 87 3 11 14.5 100.14     LegendNANA
06:00 12.8 12.1 96 33 7 14.5 100.19     LegendNANA
07:00 13.2 12.2 94 32 6 14.5 100.23     LegendNANA
08:00 14.0 11.9 87 1 9 14.5 100.27     LegendNANA
09:00 14.7 12.2 85 3 7 14.5 100.32     LegendNANA
10:00 16.0 12.3 79 8 6 14.5 100.35     LegendNANA
11:00 16.7 12.0 74 5 6 14.5 100.36     LegendNANA
12:00 18.3 11.6 65 5 9 14.5 100.37     LegendNANA
13:00 19.3 11.7 61 2 7 14.5 100.36     LegendNANA
14:00 19.7 11.3 58   0 14.5 100.34     LegendNANA
15:00 20.4 10.8 54 5 4 14.5 100.33     LegendNANA
16:00 20.5 10.9 54 5 6 14.5 100.34     LegendNANA
17:00 19.3 12.5 65 8 4 14.5 100.40     LegendNANA
18:00 14.8 12.5 86 22 4 14.5 100.45     LegendNANA
19:00 13.8 12.2 90 35 6 14.5 100.51     LegendNANA
20:00 11.4 11.4 100 20 4 14.5 100.59     LegendNANA
21:00 10.4 10.3 99   0 14.5 100.63     LegendNANA
22:00 9.4 9.4 100   0 14.5 100.65     LegendNANA
23:00 8.3 8.3 100   0 9.7 100.70     LegendNANA

Notes on Data Quality.

Legend

  • E = Estimated
  • M = Missing
  • NA = Not Available
  • ‡ = Partner data that is not subject to review by the National Climate Archives
Date modified: